Regional Weather Roundup
Issued by NWS Cleveland, OH

Home | Current Version | Previous Version | Graphics & Text | Print | Product List | Glossary On
Versions: 1 2 3 4 5 6 7 8 9 10 11 12 13 14 15 16 17 18 19 20 21 22 23 24 25 26 27 28 29 30 31 32 33 34 35 36 37 38 39 40 41 42 43 44 45 46 47 48 49 50
000
ASUS41 KCLE 271312
RWRCLE
OHIO REGIONAL WEATHER ROUNDUP
NATIONAL WEATHER SERVICE WILMINGTON, OH
900 AM EDT TUE SEP 27 2016

NOTE: "FAIR" INDICATES FEW OR NO CLOUDS BELOW 12,000 FEET WITH NO
SIGNIFICANT WEATHER AND/OR OBSTRUCTIONS TO VISIBILITY.

OHZ001>008-015>018-024>027-034-035-043-044-271400-
   NORTHWEST OHIO

CITY           SKY/WX    TMP DP  RH WIND       PRES   REMARKS
DEFIANCE       FAIR      56  41  57 SW10      29.86F
FINDLAY        FAIR      56  41  57 SW12      29.88S
TOLEDO EXPRESS FAIR      52  43  71 SW10      29.85S
TOLEDO EXEC    FAIR      55  43  63 SW13      29.86F
LIMA           FAIR      53  43  68 SW12      29.90F
$$

OHZ009>014-019>023-028>033-038-089-271400-
   NORTHEAST OHIO

CITY           SKY/WX    TMP DP  RH WIND       PRES   REMARKS
CLE-HOPKINS    FAIR      57  40  52 S15       29.90F
CLE-LAKEFRONT  FAIR      58  42  55 S13       29.86F
CUY CO. ARPT   SUNNY     59  43  55 SW16      29.88F
LORAIN-ELYRIA  FAIR      54  42  64 SW10      29.89F
ASHTABULA      FAIR      53  46  77 S12       29.90S
AKRON-CANTON   FAIR      53  46  77 S7        29.93F
WOOSTER        FAIR      52  47  83 SW8       29.93F
MANSFIELD      FAIR      53  45  74 S9        29.92F
YOUNGSTOWN     FAIR      52  48  86 S9        29.92F
$$

OHZ042-051>053-060>062-070>072-077>081-271400-
  SOUTHWEST OHIO

CITY           SKY/WX    TMP DP  RH WIND       PRES   REMARKS
CINC-COVINGTON FAIR      53  51  93 S6        30.00S
CINC-LUNKEN    FAIR      52  52 100 S3        30.01F
HAMILTON       FAIR      53  51  93 CALM      30.00S
DAYTON         FAIR      54  44  69 SW14      29.97S
WRIGHT-PAT AFB FAIR      54  49  81 S6        29.96F
DAYTON GENERAL FAIR      53  47  79 SW5       29.98S
WILMINGTON     FAIR      53  50  89 S7        29.99S
$$

OHZ036-037-039>041-045>050-054>059-063>069-073>076-082>088-271400-
  CENTRAL AND SOUTHEAST OHIO

CITY           SKY/WX    TMP DP  RH WIND       PRES   REMARKS
COLUMBUS       FAIR      52  51  97 S8        29.96F
OSU AIRPORT    FAIR      54  48  80 S7        29.96S
BOLTON FIELD   SUNNY     52  48  87 SW7       29.97F
RICKENBACK AFB FAIR      52  50  92 SW10      29.97F
NEWARK         FAIR      53  50  89 SW5       29.96F
MARION         FAIR      53  45  74 S9        29.93F
LANCASTER      FAIR      55  50  83 S5        29.98F
ZANESVILLE     FAIR      53  50  89 S7        29.98F
NEW PHILLY     FAIR      53  53 100 VRB3      29.96F
$$




USA.gov is the U.S. government's official web portal to all federal, state and local government web resources and services.